Regional Weather Roundup
Issued by NWS

Home | Current Version | Previous Version | Graphics & Text | Print | Product List | Glossary On
Versions: 1 2 3 4 5 6 7 8 9 10 11 12 13 14 15 16 17 18 19 20 21 22 23 24 25 26 27 28 29 30 31 32 33 34 35 36 37 38 39 40 41 42 43 44 45 46 47 48 49 50
000
ASUS43 KMPX 100901
RWRMN
WEATHER ROUNDUP FOR MINNESOTA
NATIONAL WEATHER SERVICE TWIN CITIES/CHANHASSEN MN
300 AM CST SUN DEC 10 2017


NOTE: "FAIR" INDICATES FEW OR NO CLOUDS BELOW 12,000 FEET WITH NO
SIGNIFICANT WEATHER AND/OR OBSTRUCTIONS TO VISIBILITY. N/A MEANS
CURRENT SKY AND/OR WEATHER CONDITIONS ARE NOT AVAILABLE.

MNZ060>063-068>070-101000-
   Twin Cities Metro

CITY           SKY/WX    TMP DP  RH WIND       PRES   REMARKS
TWIN CITIES    CLOUDY    21  18  88 CALM      29.81S
ST PAUL        CLOUDY    18  14  84 CALM      29.82F
CRYSTAL        CLOUDY    20  14  77 W3        29.80S
BLAINE         CLOUDY    19  18  93 CALM      29.80S
LAKEVILLE      CLOUDY    21  19  93 W5        29.81R WCI  15
EDEN PRAIRIE   CLOUDY    23  18  81 W5        29.80S WCI  17
SOUTH ST PAUL  CLOUDY    17  15  89 CALM      29.81S
LAKE ELMO      FAIR      14  12  92 CALM      29.81S
$$
MNZ001>005-007-008-013>017-022>024-027-028-101000-
   Northwest Minnesota

CITY           SKY/WX    TMP DP  RH WIND       PRES   REMARKS
BEMIDJI        CLOUDY    21  19  92 NW7       29.84R WCI  13
HALLOCK        CLOUDY    21  18  86 N10       29.95R WCI  10
ROSEAU         CLOUDY    21  16  79 N12       29.91R WCI   9
WARROAD        CLOUDY    19  16  86 NW7       29.90R WCI  10
CROOKSTON      MOCLDY    21  19  93 N15       29.93R WCI   8
FOSSTON        CLOUDY    19  18  93 NW9       29.88R WCI   9
DETROIT LAKES  CLOUDY    25  21  86 NW13      29.87R WCI  13
MOORHEAD       CLOUDY    27  21  80 CALM      29.92R
PARK RAPIDS    CLOUDY    21  18  88 NW9       29.82R WCI  11
MAHNOMEN       FAIR      22  19  87 NW10      29.86R WCI  11
$$
MNZ006-009>011-018-025>026-101000-
   North Central Minnesota

CITY           SKY/WX    TMP DP  RH WIND       PRES   REMARKS
BAUDETTE       CLOUDY    18  15  88 NW7       29.87R WCI   9
FLAG ISLAND    CLOUDY    18  14  86 N13       29.90R WCI   4
INTL FALLS     CLOUDY    17  12  80 N9        29.84R WCI   6
WASKISH        CLOUDY    19  18  93 N5        29.85R WCI  13
BIG FORK       CLOUDY    21  16  79 N6        29.81R WCI  14
GRAND RAPIDS   CLOUDY    22  17  81 NW9       29.80R WCI  12
ORR            CLOUDY    18  10  73 CALM      29.78R
COOK           CLOUDY    18  14  86 CALM      29.79S
WALKER         CLOUDY    22  19  88 NW9       29.82R WCI  11
$$
MNZ012-019>021-037-101000-
   Northeast Minnesota

CITY           SKY/WX    TMP DP  RH WIND       PRES   REMARKS
DULUTH         CLOUDY    20  15  81 NW5       29.76R WCI  13
ELY            CLOUDY    16  12  86 NW3       29.77S
HIBBING        CLOUDY    18  14  84 CALM      29.78R
EVELETH        CLOUDY    17  13  82 CALM      29.79R
DULUTH HARBOR  CLOUDY    23  18  80 SW6       29.82S WCI  16
TWO HARBORS    CLOUDY    23  16  74 W8        29.76S WCI  14
G MARAIS ARPRT LGT SNOW  12   7  79 NW7       29.71F WCI   2
$$
MNZ029>031-032-039>041-046>048-054>057-064-101000-
   West Central Minnesota

CITY           SKY/WX    TMP DP  RH WIND       PRES   REMARKS
FERGUS FALLS   CLOUDY    27  21  80 N16       29.91R WCI  14
MORRIS         PTCLDY    28  23  80 NW20      29.87R WCI  15
ALEXANDRIA     CLOUDY    27  22  81 NW10      29.84R WCI  17
ELBOW LAKE     FAIR      27  22  84 NW13      29.87R WCI  16
WADENA         CLOUDY    23  19  86 NW12      29.83R WCI  12
GLENWOOD       CLEAR     27  21  80 NW13      29.84R WCI  16
BENSON         CLOUDY    30  23  74 N16       29.89R WCI  19
ORTONVILLE     CLOUDY    34  23  64 NW14G23   29.91R WCI  24
MADISON        CLOUDY    36  27  69 NW17      29.92R
WILLMAR        FAIR      28  25  86 NW10      29.87R WCI  19
$$
MNZ033>034-036-042>043-049>051-058-059-101000-
   Central Minnesota

CITY           SKY/WX    TMP DP  RH WIND       PRES   REMARKS
ST CLOUD       CLOUDY    18  15  88 NW6       29.81R WCI  10
SAUK CENTRE    FAIR      26  21  79 NW12      29.83R WCI  16
PAYNESVILLE    PTCLDY    24  22  91 NW7       29.84R WCI  16
AITKIN         CLOUDY    21  16  79 W3        29.78R
PINE RIVER     CLOUDY    19  16  86 NW6       29.84R WCI  11
BRAINERD       CLOUDY    22  17  81 W7        29.81R WCI  13
STAPLES        CLOUDY    21  19  93 NW9       29.82R WCI  11
LONG PRAIRIE   FAIR      27  21  80 W15G21    29.82R WCI  15
LITTLE FALLS   CLOUDY    21  18  86 NW6       29.82R WCI  14
LITCHFIELD     CLEAR     28  25  86 NW10G17   29.83R WCI  19
BUFFALO        CLOUDY    21  18  89 W3        29.82R
MAPLE LAKE     CLEAR     25  22  89 W7        29.82R WCI  17
HUTCHINSON     CLOUDY    26  22  84 W12       29.84R WCI  16
$$
MNZ037-044-045-052-053-101000-
   East Central Minnesota

CITY           SKY/WX    TMP DP  RH WIND       PRES   REMARKS
PRINCETON      CLOUDY    12  10  92 CALM      29.80R
MORA           CLOUDY    19  16  86 CALM      29.81S
CAMBRIDGE      CLOUDY    16  10  79 CALM      29.80F
RUSH CITY      CLOUDY    17  15  90 CALM      29.81S
MOOSE LAKE     CLOUDY    23  18  80 CALM      29.77S
HINCKLEY       CLOUDY    23  18  80 CALM      29.80S
CLOQUET        CLOUDY    21  16  79 CALM      29.77S
MCGREGOR       CLOUDY    23  19  86 CALM      29.79R
$$
MNZ071>073-080-081-089-090-097-098-101000-
   Southwest Minnesota

CITY           SKY/WX    TMP DP  RH WIND       PRES   REMARKS
MONTEVIDEO     CLOUDY    32  25  74 N16G25    29.89R WCI  21
GRANITE FALLS  CLOUDY    32  26  78 NW13      29.90R WCI  23
CANBY          CLOUDY    35  27  73 W14       29.93R WCI  26
MARSHALL       CLOUDY    33  25  72 NW16      29.90R WCI  23
REDWOOD FALLS  CLOUDY    33  23  66 NW15G22   29.86R WCI  23
OLIVIA         CLOUDY    32  27  80 NW15G21   29.86R WCI  22
PIPESTONE      CLOUDY    30  25  80 NW13      29.89S WCI  20
WINDOM           N/A     30  16  55 NW14      29.87R WCI  20
WORTHINGTON    CLOUDY    27  22  81 NW13      29.90R WCI  16
JACKSON        CLOUDY    32  23  69 MISG      29.87R
TRACY          CLOUDY    34  27  76 NW15      29.88R WCI  24
$$
MNZ065>067-074>077-082>085-091>093-101000-
   South Central Minnesota

CITY           SKY/WX    TMP DP  RH WIND       PRES   REMARKS
MANKATO        CLEAR     27  22  81 W13       29.84R WCI  16
NEW ULM        CLOUDY    28  21  74 NW20      29.85R WCI  15
ST JAMES       CLOUDY    30  25  80 W17       29.87R WCI  18
FAIRMONT       CLOUDY    29  23  78 NW16G24   29.86R WCI  17
GLENCOE        CLEAR     27  23  84 W13       29.82R WCI  16
FARIBAULT      CLEAR     21  18  86 SW5       29.82S WCI  15
WASECA         CLEAR     23  19  86 SW6       29.83F WCI  16
ALBERT LEA     CLEAR     25  18  74 W10       29.83R WCI  15
$$
MNZ078>079-086>088-094>096-101000-
   Southeast Minnesota

CITY           SKY/WX    TMP DP  RH WIND       PRES   REMARKS
ROCHESTER      CLEAR     21  16  81 SW12      29.81R WCI   9
RED WING       CLOUDY    18  12  79 CALM      29.82S
STANTON        CLOUDY    22  18  85 SW9       29.80S WCI  12
DODGE CENTER   PTCLDY    19  16  86 SW10      29.80F WCI   8
WINONA           N/A     25  18  74 SW3       29.86R
AUSTIN         CLEAR     19  16  86 SW7       29.83S WCI  10
PRESTON        CLEAR     20  14  79 SW12      29.82S WCI   8
$$
ABBREVIATIONS USED IN REMARKS
   TC - TEMPERATURES IN CELSIUS
  WCI - WIND CHILL INDEX
   HX - HEAT INDEX
  VSB - VISIBILITY
$$




USA.gov is the U.S. government's official web portal to all federal, state and local government web resources and services.